Weather History for Salina, KS

Change the Weather History Date:

Thursday, December 8, 2011

  Actual Average Record
Temperature  
Mean Temperature 29 °F 34 °F  
Max Temperature 39 °F 44 °F 70 °F (1908)
Min Temperature 19 °F 23 °F -8 °F (1917)
Degree Days  
Heating Degree Days 36 31  
Month to date heating degree days 287 241  
Since 1 July heating degree days 1211 1193  
Cooling Degree Days 0 0  
Month to date cooling degree days 0 0  
Year to date cooling degree days 2003 1647  
Moisture  
Dew Point 24 °F    
Average Humidity 76    
Maximum Humidity 92    
Minimum Humidity 59    
Precipitation  
Precipitation 0.00 in 0.03 in 0.48 in (1907)
Month to date precipitation 0.71 0.29  
Year to date precipitation 20.21 30.85  
Sea Level Pressure  
Sea Level Pressure 30.23 in    
Wind  
Wind Speed 4 mph (NNE)    
Max Wind Speed 12 mph    
Max Gust Speed 15 mph    
Visibility 9 miles    
Events      
T = Trace of Precipitation, MM = Missing Value Source: NWS Daily Summary

Daily Weather History Graph

Daily Weather History Graph

Search for Another Location

Airport:

Trip Planner

Search our weather history database for the weather conditions in past years. The results will help you decide how hot, cold, wet, or windy it might be!

Date:

Astronomy

Dec. 08, 2011 Rise Set
Actual Time 7:36 AM CST 5:08 PM CST
Civil Twilight 7:06 AM CST 5:38 PM CST
Nautical Twilight 6:33 AM CST 6:11 PM CST
Astronomical Twilight 6:00 AM CST 6:43 PM CST
Moon 3:48 PM CST (12/8) 5:49 AM CST (12/8)
Length of Visible Light 10h 31m
Length of Day
9h 32m
Waxing Gibbous, 97% of the Moon is Illuminated
Dec 8
Waxing Gibbous
Dec 10
Full
Dec 17
Last Quarter
Dec 24
New
Jan 1
First Quarter

Hourly Weather History & Observations

Time (CST) Temp. Windchill Dew Point Humidity Pressure Visibility Wind Dir Wind Speed Gust Speed Precip Events Conditions
12:53 AM 24.1 °F - 21.0 °F 88% 30.23 in 10.0 mi Calm Calm - N/A   Clear
1:53 AM 24.1 °F - 21.0 °F 88% 30.21 in 10.0 mi Calm Calm - N/A   Clear
2:53 AM 23.0 °F - 19.9 °F 88% 30.22 in 10.0 mi Calm Calm - N/A   Clear
3:53 AM 24.1 °F - 21.0 °F 88% 30.20 in 10.0 mi Calm Calm - N/A   Clear
4:53 AM 21.0 °F 16.2 °F 19.0 °F 92% 30.22 in 10.0 mi WSW 3.5 mph - N/A   Clear
5:53 AM 21.0 °F - 18.0 °F 88% 30.25 in 10.0 mi Calm Calm - N/A   Clear
6:53 AM 19.9 °F - 18.0 °F 92% 30.25 in 10.0 mi Calm Calm - N/A   Clear
7:53 AM 21.0 °F - 18.0 °F 88% 30.26 in 9.0 mi Calm Calm - N/A   Clear
8:53 AM 24.8 °F - 21.2 °F 86% 30.21 in 8.0 mi Calm Calm - N/A   Clear
9:53 AM 28.9 °F - 25.0 °F 85% 30.27 in 7.0 mi Calm Calm - N/A   Clear
10:53 AM 33.1 °F - 27.0 °F 78% 30.27 in 9.0 mi Calm Calm - N/A   Clear
11:53 AM 34.0 °F 28.8 °F 26.1 °F 73% 30.24 in 9.0 mi NNW 5.8 mph - N/A   Clear
12:53 PM 37.0 °F 31.6 °F 25.0 °F 62% 30.20 in 10.0 mi NE 6.9 mph - N/A   Partly Cloudy
1:53 PM 37.0 °F 32.4 °F 26.1 °F 65% 30.19 in 10.0 mi NNE 5.8 mph - N/A   Mostly Cloudy
2:53 PM 37.4 °F 34.9 °F 26.6 °F 65% 30.15 in 10.0 mi NNE 3.5 mph - N/A   Mostly Cloudy
3:53 PM 37.9 °F 33.5 °F 27.0 °F 65% 30.19 in 10.0 mi NNE 5.8 mph - N/A   Mostly Cloudy
4:53 PM 37.0 °F 31.0 °F 27.0 °F 67% 30.19 in 10.0 mi NE 8.1 mph - N/A   Overcast
5:53 PM 35.6 °F 30.7 °F 26.6 °F 70% 30.16 in 10.0 mi NNE 5.8 mph - N/A   Overcast
6:53 PM 33.1 °F 26.1 °F 27.0 °F 78% 30.23 in 10.0 mi North 8.1 mph - N/A   Clear
7:53 PM 30.9 °F 22.8 °F 25.0 °F 79% 30.26 in 10.0 mi North 9.2 mph - N/A   Clear
8:53 PM 30.0 °F 22.4 °F 25.0 °F 82% 30.26 in 10.0 mi NNE 8.1 mph - N/A   Clear
9:53 PM 30.0 °F 23.2 °F 26.1 °F 85% 30.28 in 8.0 mi NNE 6.9 mph - N/A   Overcast
10:53 PM 30.0 °F 24.1 °F 27.0 °F 88% 30.30 in 5.0 mi North 5.8 mph - N/A   Overcast
11:01 PM 30.2 °F 23.4 °F 28.4 °F 93% 30.26 in 5.0 mi NNE 6.9 mph - N/A   Overcast
11:53 PM 30.0 °F 20.5 °F 27.0 °F 88% 30.31 in 5.0 mi North 11.5 mph - N/A   Overcast